Weather History for Crane Lake, MN

Change the Weather History Date:

Tuesday, February 12, 2013

  Actual Average Record
Temperature  
Mean Temperature 16 °F -  
Max Temperature 30 °F 22 °F 37 °F (2005)
Min Temperature 1 °F 0 °F -23 °F (1997)
Degree Days  
Heating Degree Days 50    
Moisture  
Dew Point 14 °F    
Average Humidity 87    
Maximum Humidity 93    
Minimum Humidity 64    
Precipitation  
Precipitation 0.02 in - - ()
Sea Level Pressure  
Sea Level Pressure 29.76 in    
Wind  
Wind Speed 3 mph (SSW)    
Max Wind Speed 8 mph    
Max Gust Speed -    
Visibility 10 miles    
Events Snow    
Averages and records for this station are not official NWS values.
T = Trace of Precipitation, MM = Missing Value Source: NWS Daily Summary

Daily Weather History Graph

Daily Weather History Graph

Search for Another Location

Airport:

Trip Planner

Search our weather history database for the weather conditions in past years. The results will help you decide how hot, cold, wet, or windy it might be!

Date:

Astronomy

Feb. 12, 2013 Rise Set
Actual Time 7:21 AM CST 5:27 PM CST
Civil Twilight 6:49 AM CST 6:00 PM CST
Nautical Twilight 6:12 AM CST 6:36 PM CST
Astronomical Twilight 5:36 AM CST 7:12 PM CST
Moon 8:02 AM CST (2/12) 8:48 PM CST (2/12)
Length of Visible Light 11h 11m
Length of Day
10h 06m
Waxing Crescent, 7% of the Moon is Illuminated
Feb 12
Waxing Crescent
Feb 17
First Quarter
Feb 25
Full
Mar 4
Last Quarter
Mar 11
New

Hourly Weather History & Observations

Time (CST) Temp. Windchill Dew Point Humidity Pressure Visibility Wind Dir Wind Speed Gust Speed Precip Events Conditions
12:11 AM 15.8 °F 10.2 °F 14.0 °F 93% 29.88 in 10.0 mi SSW 3.5 mph - N/A   Overcast
12:35 AM 15.8 °F 7.2 °F 12.2 °F 86% 29.84 in 10.0 mi SW 5.8 mph - N/A   Overcast
12:51 AM 15.8 °F - 14.0 °F 93% 29.87 in 10.0 mi Calm Calm - N/A   Overcast
1:12 AM 15.8 °F 10.2 °F 12.2 °F 86% 29.87 in 10.0 mi SSW 3.5 mph - N/A   Overcast
1:33 AM 12.2 °F 6.1 °F 8.6 °F 85% 29.82 in 10.0 mi WSW 3.5 mph - N/A   Clear
1:51 AM 12.2 °F 6.1 °F 10.4 °F 92% 29.87 in 10.0 mi SW 3.5 mph - N/A   Scattered Clouds
2:11 AM 12.2 °F - 10.4 °F 92% 29.87 in 10.0 mi Calm Calm - N/A   Clear
2:31 AM 10.4 °F - 8.6 °F 92% 29.87 in 10.0 mi Calm Calm - N/A   Clear
2:52 AM 8.6 °F 2.0 °F 6.8 °F 92% 29.87 in 10.0 mi SSW 3.5 mph - N/A   Clear
3:13 AM 8.6 °F - 6.8 °F 92% 29.86 in 10.0 mi Calm Calm - N/A   Clear
3:31 AM 6.8 °F - 5.0 °F 92% 29.86 in 10.0 mi Calm Calm - N/A   Clear
3:51 AM 6.8 °F - 3.2 °F 85% 29.86 in 10.0 mi Calm Calm - N/A   Clear
4:11 AM 3.2 °F -4.2 °F 1.4 °F 92% 29.86 in 10.0 mi South 3.5 mph - N/A   Clear
4:36 AM 1.4 °F -6.2 °F -0.4 °F 92% 29.86 in 10.0 mi South 3.5 mph - N/A   Mostly Cloudy
4:51 AM 1.4 °F - -0.4 °F 92% 29.86 in 10.0 mi Calm Calm - N/A   Mostly Cloudy
5:11 AM 3.2 °F -4.2 °F 1.4 °F 92% 29.86 in 10.0 mi South 3.5 mph - N/A Snow Light Snow
5:31 AM 8.6 °F - 6.8 °F 92% 29.86 in 10.0 mi Calm Calm - N/A Snow Light Snow
5:51 AM 8.6 °F 2.0 °F 6.8 °F 92% 29.85 in 7.0 mi South 3.5 mph - N/A Snow Light Snow
6:11 AM 10.4 °F 2.2 °F 8.6 °F 92% 29.84 in 3.0 mi South 4.6 mph - N/A Snow Light Snow
6:31 AM 10.4 °F 0.8 °F 8.6 °F 92% 29.84 in 3.0 mi South 5.8 mph - N/A Snow Light Snow
6:51 AM 10.4 °F 2.2 °F 8.6 °F 92% 29.83 in 4.0 mi SSW 4.6 mph - N/A Snow Light Snow
7:11 AM 10.4 °F 2.2 °F 8.6 °F 92% 29.83 in 7.0 mi South 4.6 mph - N/A Snow Light Snow
7:31 AM 12.2 °F 4.3 °F 10.4 °F 92% 29.82 in 10.0 mi South 4.6 mph - N/A Snow Light Snow
7:51 AM 12.2 °F 2.9 °F 10.4 °F 92% 29.81 in 10.0 mi SSE 5.8 mph - N/A Snow Light Snow
8:12 AM 12.2 °F 4.3 °F 10.4 °F 92% 29.80 in 10.0 mi South 4.6 mph - N/A   Overcast
8:31 AM 12.2 °F 2.9 °F 10.4 °F 92% 29.80 in 10.0 mi South 5.8 mph - N/A   Overcast
8:52 AM 14.0 °F 3.9 °F 12.2 °F 93% 29.80 in 10.0 mi South 6.9 mph - N/A   Overcast
9:12 AM 14.0 °F 8.2 °F 12.2 °F 93% 29.80 in 10.0 mi South 3.5 mph - N/A   Overcast
9:31 AM 15.8 °F 10.2 °F 14.0 °F 93% 29.80 in 10.0 mi South 3.5 mph - N/A   Overcast
9:51 AM 15.8 °F 8.6 °F 14.0 °F 93% 29.79 in 10.0 mi South 4.6 mph - N/A   Overcast
10:11 AM 17.6 °F 10.7 °F 15.8 °F 93% 29.78 in 10.0 mi South 4.6 mph - N/A   Overcast
10:31 AM 17.6 °F 7.3 °F 15.8 °F 93% 29.78 in 10.0 mi South 8.1 mph - N/A   Overcast
10:51 AM 19.4 °F 11.5 °F 17.6 °F 93% 29.77 in 10.0 mi South 5.8 mph - N/A   Overcast
11:11 AM 21.2 °F 13.6 °F 17.6 °F 86% 29.77 in 10.0 mi SSW 5.8 mph - N/A   Overcast
11:31 AM 21.2 °F 14.9 °F 17.6 °F 86% 29.76 in 10.0 mi SSW 4.6 mph - N/A   Overcast
11:51 AM 21.2 °F 14.9 °F 17.6 °F 86% 29.76 in 10.0 mi South 4.6 mph - N/A   Overcast
12:11 PM 24.8 °F 17.9 °F 19.4 °F 80% 29.74 in 10.0 mi SSW 5.8 mph - N/A   Overcast
12:31 PM 24.8 °F 17.9 °F 19.4 °F 80% 29.73 in 10.0 mi South 5.8 mph - N/A   Overcast
12:51 PM 26.6 °F 20.0 °F 21.2 °F 80% 29.73 in 10.0 mi SW 5.8 mph - N/A   Overcast
1:11 PM 28.4 °F 24.6 °F 23.0 °F 80% 29.72 in 10.0 mi WSW 3.5 mph - N/A   Mostly Cloudy
1:31 PM 30.2 °F 24.3 °F 19.4 °F 64% 29.72 in 10.0 mi SSW 5.8 mph - N/A   Scattered Clouds
1:51 PM 28.4 °F 20.4 °F 19.4 °F 69% 29.71 in 10.0 mi SW 8.1 mph - N/A   Scattered Clouds
2:11 PM 30.2 °F 26.7 °F 21.2 °F 69% 29.71 in 10.0 mi SW 3.5 mph - N/A   Mostly Cloudy
2:31 PM 28.4 °F 21.2 °F 19.4 °F 69% 29.71 in 10.0 mi SW 6.9 mph - N/A   Overcast
2:51 PM 26.6 °F 20.0 °F 19.4 °F 74% 29.71 in 10.0 mi SSW 5.8 mph - N/A   Overcast
3:11 PM 26.6 °F 21.2 °F 19.4 °F 74% 29.71 in 10.0 mi SW 4.6 mph - N/A   Overcast
3:31 PM 28.4 °F 24.6 °F 21.2 °F 74% 29.71 in 10.0 mi SSW 3.5 mph - 0.01 in   Overcast
3:51 PM 30.2 °F 24.3 °F 23.0 °F 75% 29.70 in 10.0 mi SSW 5.8 mph - 0.01 in   Mostly Cloudy
4:11 PM 30.2 °F 26.7 °F 21.2 °F 69% 29.70 in 10.0 mi South 3.5 mph - N/A   Scattered Clouds
4:31 PM 30.2 °F - 21.2 °F 69% 29.69 in 10.0 mi Calm Calm - N/A   Scattered Clouds
4:51 PM 26.6 °F - 19.4 °F 74% 29.69 in 10.0 mi Calm Calm - N/A   Clear
5:11 PM 24.8 °F 19.1 °F 19.4 °F 80% 29.69 in 10.0 mi South 4.6 mph - N/A   Clear
5:31 PM 24.8 °F - 19.4 °F 80% 29.69 in 10.0 mi Calm Calm - N/A   Clear
5:51 PM 21.2 °F - 17.6 °F 86% 29.68 in 10.0 mi Calm Calm - N/A   Scattered Clouds
6:11 PM 21.2 °F - 17.6 °F 86% 29.68 in 10.0 mi Calm Calm - N/A   Mostly Cloudy
6:31 PM 23.0 °F - 19.4 °F 86% 29.68 in 10.0 mi Calm Calm - 0.01 in   Overcast
6:51 PM 24.8 °F 20.5 °F 21.2 °F 86% 29.67 in 10.0 mi South 3.5 mph - 0.01 in   Overcast
7:11 PM 24.8 °F 20.5 °F 21.2 °F 86% 29.67 in 10.0 mi South 3.5 mph - N/A   Mostly Cloudy
7:31 PM 21.2 °F 16.4 °F 19.4 °F 93% 29.67 in 10.0 mi South 3.5 mph - N/A   Scattered Clouds
7:51 PM 21.2 °F 16.4 °F 19.4 °F 93% 29.66 in 10.0 mi South 3.5 mph - N/A   Clear
8:11 PM 21.2 °F 16.4 °F 17.6 °F 86% 29.66 in 10.0 mi South 3.5 mph - N/A   Clear
8:31 PM 21.2 °F 16.4 °F 19.4 °F 93% 29.66 in 10.0 mi South 3.5 mph - N/A   Clear
8:51 PM 21.2 °F 16.4 °F 19.4 °F 93% 29.66 in 10.0 mi SSW 3.5 mph - N/A   Mostly Cloudy
9:11 PM 21.2 °F 16.4 °F 19.4 °F 93% 29.66 in 10.0 mi SSW 3.5 mph - N/A   Scattered Clouds
9:31 PM 19.4 °F - 17.6 °F 93% 29.67 in 10.0 mi Calm Calm - N/A   Clear
9:51 PM 15.8 °F - 12.2 °F 86% 29.67 in 10.0 mi Calm Calm - N/A   Clear
10:11 PM 17.6 °F 12.3 °F 15.8 °F 93% 29.66 in 10.0 mi South 3.5 mph - N/A   Clear
10:31 PM 15.8 °F - 12.2 °F 86% 29.66 in 10.0 mi Calm Calm - N/A   Clear
10:51 PM 12.2 °F - 10.4 °F 92% 29.65 in 10.0 mi Calm Calm - N/A   Clear
11:11 PM 10.4 °F - 8.6 °F 92% 29.66 in 10.0 mi Calm Calm - N/A   Clear
11:31 PM 8.6 °F - 6.8 °F 92% 29.65 in 10.0 mi Calm Calm - N/A   Clear
11:51 PM 8.6 °F - 5.0 °F 85% 29.66 in 10.0 mi Calm Calm - N/A   Clear